Weather History for KBMQ - April, 2013

Change the Weather History Date:

Tuesday, April 23, 2013

  Actual Average Record
Temperature  
Mean Temperature 60 °F -  
Max Temperature 73 °F 76 °F 89 °F (2011)
Min Temperature 46 °F 56 °F 46 °F (2013)
Degree Days  
Heating Degree Days 6    
Growing Degree Days 10 (Base 50)    
Moisture  
Dew Point 52 °F    
Average Humidity 69    
Maximum Humidity 87    
Minimum Humidity 50    
Precipitation  
Precipitation 0.00 in - - ()
Sea Level Pressure  
Sea Level Pressure 29.95 in    
Wind  
Wind Speed 11 mph (North)    
Max Wind Speed 15 mph    
Max Gust Speed 25 mph    
Visibility 9 miles    
Events Rain    
Averages and records for this station are not official NWS values.
T = Trace of Precipitation, MM = Missing Value Source: NWS Daily Summary

Daily Weather History Graph

Daily Weather History Graph

Search for Another Location

Airport or City:

Trip Planner

Search our weather history database for the weather conditions in past years. The results will help you decide how hot, cold, wet, or windy it might be!

Date:

Astronomy

Apr. 23, 2013 Rise Set
Actual Time 6:56 AM CDT 8:06 PM CDT
Civil Twilight 6:31 AM CDT 8:31 PM CDT
Nautical Twilight 6:01 AM CDT 9:01 PM CDT
Astronomical Twilight 5:30 AM CDT 9:32 PM CDT
Moon 6:09 PM CDT (4/23) 5:16 AM CDT (4/23)
Length of Visible Light 14h 00m
Length of Day
13h 09m
Waxing Gibbous, 94% of the Moon is Illuminated
Apr 23
Waxing Gibbous
Apr 25
Full
May 2
Last Quarter
May 9
New
May 17
First Quarter

Hourly Weather History & Observations

Time (CDT) Temp. Dew Point Humidity Pressure Visibility Wind Dir Wind Speed Gust Speed Precip Events Conditions
12:53 AM 68.0 °F 59.0 °F 73% 29.86 in 10.0 mi SSE 12.7 mph 21.9 mph N/A   Clear
1:53 AM 66.0 °F 59.0 °F 78% 29.85 in 10.0 mi South 10.4 mph 20.7 mph N/A   Clear
2:27 AM 64.9 °F 59.0 °F 81% 29.89 in 10.0 mi SSE 9.2 mph - N/A   Mostly Cloudy
2:53 AM 64.9 °F 59.0 °F 81% 29.83 in 10.0 mi South 11.5 mph 21.9 mph N/A   Overcast
3:53 AM 64.9 °F 60.1 °F 84% 29.82 in 10.0 mi South 13.8 mph 25.3 mph N/A   Overcast
5:53 AM 64.9 °F 61.0 °F 87% 29.81 in 10.0 mi South 13.8 mph 20.7 mph N/A   Overcast
6:16 AM 64.9 °F 61.0 °F 87% 29.86 in 10.0 mi South 13.8 mph 20.7 mph N/A   Overcast
6:28 AM 66.0 °F 61.0 °F 84% 29.86 in 10.0 mi South 10.4 mph 20.7 mph N/A   Overcast
6:53 AM 66.0 °F 61.0 °F 84% 29.83 in 9.0 mi South 12.7 mph - N/A   Overcast
7:03 AM 66.0 °F 60.1 °F 81% 29.87 in 9.0 mi South 11.5 mph 23.0 mph N/A   Overcast
7:53 AM 66.9 °F 60.1 °F 79% 29.85 in 7.0 mi South 12.7 mph 20.7 mph N/A   Overcast
8:53 AM 66.9 °F 60.1 °F 79% 29.93 in 8.0 mi SSW 5.8 mph - N/A   Overcast
9:53 AM 66.9 °F 62.1 °F 84% 29.95 in 6.0 mi Calm Calm - 0.00 in   Haze
10:09 AM 66.9 °F 62.1 °F 84% 29.99 in 8.0 mi SE 4.6 mph - N/A   Overcast
10:31 AM 69.1 °F 62.1 °F 78% 29.98 in 9.0 mi SSE 4.6 mph - N/A   Overcast
10:48 AM 69.8 °F 62.6 °F 78% 29.99 in 8.0 mi South 8.1 mph - N/A   Overcast
10:53 AM 69.1 °F 61.0 °F 75% 29.95 in 8.0 mi South 8.1 mph - N/A   Overcast
11:53 AM 71.1 °F 61.0 °F 70% 29.95 in 9.0 mi Variable 5.8 mph - N/A   Overcast
12:01 PM 71.1 °F 61.0 °F 70% 29.99 in 9.0 mi South 4.6 mph - N/A   Overcast
12:53 PM 69.1 °F 54.0 °F 58% 29.95 in 10.0 mi North - - N/A   Overcast
1:08 PM 66.0 °F 50.0 °F 56% 29.98 in 10.0 mi North 13.8 mph 20.7 mph N/A   Overcast
1:29 PM 66.9 °F 48.9 °F 52% 29.99 in 10.0 mi North 10.4 mph - N/A   Overcast
1:41 PM 66.0 °F 48.0 °F 52% 29.99 in 10.0 mi North 11.5 mph - N/A   Overcast
1:53 PM 64.9 °F 48.0 °F 54% 29.95 in 10.0 mi North 12.7 mph - N/A   Overcast
2:53 PM 64.9 °F 46.0 °F 50% 29.96 in 10.0 mi North 9.2 mph - N/A   Overcast
3:08 PM 64.0 °F 46.0 °F 52% 29.99 in 10.0 mi North 12.7 mph - N/A   Overcast
3:53 PM 63.0 °F 45.0 °F 52% 29.96 in 10.0 mi North 13.8 mph 19.6 mph N/A   Overcast
4:36 PM 61.0 °F 44.1 °F 54% 29.99 in 10.0 mi North 10.4 mph - N/A   Overcast
4:53 PM 60.1 °F 43.0 °F 53% 29.96 in 10.0 mi North 12.7 mph 21.9 mph N/A   Overcast
5:38 PM 57.0 °F 42.1 °F 57% 29.99 in 10.0 mi North 12.7 mph - N/A   Overcast
5:53 PM 55.9 °F 42.1 °F 60% 29.96 in 10.0 mi North 12.7 mph - N/A   Overcast
6:53 PM 54.0 °F 41.0 °F 62% 30.00 in 10.0 mi NNW 12.7 mph 21.9 mph N/A   Overcast
7:53 PM 52.0 °F 39.0 °F 61% 30.00 in 10.0 mi North 15.0 mph 20.7 mph N/A   Overcast
8:53 PM 50.0 °F 37.9 °F 63% 30.04 in 10.0 mi North 10.4 mph 18.4 mph N/A   Overcast
9:53 PM 48.9 °F 39.0 °F 69% 30.09 in 9.0 mi North 11.5 mph - 0.00 in Rain Light Rain
10:53 PM 48.9 °F 37.0 °F 64% 30.12 in 10.0 mi North 15.0 mph 21.9 mph 0.00 in   Overcast
11:53 PM 46.9 °F 37.9 °F 71% 30.15 in 10.0 mi NNW 15.0 mph 25.3 mph N/A   Overcast